Location: Devore Heights
(34.2372°N, 117.4156°W)
Time: 00:01:14
(UTC+00:00)

Transit 4A - Pass Details

Date: 21 September 2024
Orbit: 864 x 978 km, 66.8° (Epoch: 13 October)

Event Time Altitude Azimuth Distance (km) Brightness Sun altitude
Rises 10:45:40 0° 262° (W) 3,460 - -34.9°
Reaches altitude 10° 10:49:49 10° 290° (WNW) 2,545 - -34.2°
Maximum altitude 10:52:16 13° 315° (NW) 2,377 - -33.7°
Exits shadow 10:54:43 10° 340° (NNW) 2,574 10.3 -33.3°
Drops below altitude 10° 10:54:44 10° 340° (NNW) 2,578 10.3 -33.3°
Sets 10:59:02 0° 9° (N) 3,551 11.4 -32.5°
